Powrót do katalogu

FENGYUN 1C DEB

AktywnyPO
NORAD 30132·DEBRIS·🇨🇳 China

Wystrzelony May 10, 1999 z Taiyuan Satellite Launch Center

Loading…

Następne Przeloty (najbliższe 24 godziny)

TLE

ŚwieżeSource: Space-Track

Epoka: Sep 14, 2026, 08:42 UTC

1 30132U 99025SM  26257.36296983  .00000342  00000-0  27592-3 0  9999
2 30132  99.6091 226.8898 0105510  28.8729 130.8333 13.95123331999320

Śledź FENGYUN 1C DEB w czasie rzeczywistym z AllMySat

Download on the App Store